Powrót do katalogu

IRIDIUM 73

AktywnyŁącznośćPO
NORAD 25344·PAYLOAD·🇺🇸 United States

Wystrzelony May 17, 1998 z Vandenberg Space Force Base

Loading…

Następne Przeloty (najbliższe 24 godziny)

TLE

ŚwieżeSource: Space-Track

Epoka: Sep 14, 2026, 14:44 UTC

1 25344U 98032C   26257.61432670  .00000358  00000-0  82967-4 0  9993
2 25344  86.4432 213.7068 0001727  88.6282 271.5122 14.52273858496504

Śledź IRIDIUM 73 w czasie rzeczywistym z AllMySat

Download on the App Store